Wind_Speed
39 36 34 31 25 20 18 18 31 44 45 41 39 37 37 44 49 54 54 53 55 56 55 58 61 62 63 61 63 61 58 57 52 55 55 57 55 52 54 54 53 54 57
39 39 36 34 31 27 24 21 21 30 48 45 47 43 48 48 44 49 53 56 57 59 61 61 63 61 55 53 54 55 52 53 55 60 63 63 61 63 63 61 63 67 69
41 42 40 38 35 33 30 28 25 25 27 35 45 50 50 48 54 53 53 54 55 55 53 51 51 52 52 52 54 57 56 57 56 55 59 57 56 54 53 53 54 52 53
47 43 42 42 41 36 36 35 34 32 31 29 30 32 33 35 37 39 39 39 38 38 38 38 38 39 40 41 43 44 46 48 47 46 49 52 52 56 54 55 54 55 57
52 46 42 44 45 43 40 38 38 38 37 37 36 36 36 35 35 36 37 39 39 40 41 42 43 44 46 48 49 52 53 53 53 53 54 58 62 63 62 62 61 65 66
56 50 46 46 46 46 47 44 43 42 41 41 40 41 42 43 42 43 44 42 43 45 45 46 48 49 52 53 54 57 59 58 59 62 62 62 63 65 68 69 69 70 70
56 53 52 50 49 48 49 53 51 48 47 46 45 46 47 48 48 49 50 49 50 52 53 54 54 55 57 58 58 59 60 62 63 65 64 66 67 68 72 74 76 77 79
57 56 56 56 55 54 54 57 55 53 54 53 54 54 54 54 53 52 50 52 53 53 55 57 59 60 60 62 65 67 67 67 68 70 72 71 72 74 77 77 78 79 81
59 60 60 60 60 59 59 60 60 59 58 60 61 60 60 61 61 59 58 59 59 59 60 61 62 63 66 69 71 73 73 75 74 76 78 78 77 78 80 83 84 85 86
58 60 62 64 62 61 63 63 62 64 66 66 65 64 65 65 64 65 65 65 65 66 67 66 69 70 73 77 79 79 80 81 84 84 83 83 83 83 85 88 90 92 95
61 61 62 62 64 65 67 67 65 64 65 67 72 71 71 69 68 68 70 71 71 72 72 73 75 78 81 81 84 84 85 87 88 88 88 88 89 92 94 94 96 100 103
64 65 64 64 66 69 67 69 68 64 64 74 75 74 75 76 76 76 78 79 78 77 78 80 83 85 87 86 87 88 90 91 91 94 96 96 98 99 101 98 98 102 103
67 65 60 57 58 75 73 73 65 70 78 79 82 79 80 81 81 82 83 85 86 85 86 88 89 89 89 91 92 93 96 97 100 101 104 105 107 106 109 109 108 110 107
72 73 73 75 76 75 78 80 81 81 85 87 86 86 89 90 87 88 92 94 96 95 93 93 93 93 95 97 99 103 104 106 110 112 111 114 110 111 113 112 114 113 116
75 75 77 78 80 81 82 82 86 86 88 90 92 92 93 95 97 99 100 100 99 98 99 100 99 100 100 101 106 110 110 111 111 109 108 110 111 115 113 118 121 121 121
83 82 80 80 82 82 84 86 88 91 93 94 94 94 98 103 104 102 103 104 105 105 107 106 108 108 108 113 115 114 113 111 111 114 116 120 120 121 121 122 123 122 123
91 89 89 88 89 88 89 88 89 92 93 95 97 100 101 102 104 108 110 111 111 113 115 114 116 118 120 121 119 117 118 120 122 125 128 129 127 126 126 126 119 117 114
94 95 95 94 95 96 97 98 100 101 102 104 105 107 107 109 111 114 115 116 118 119 120 123 124 122 122 125 124 127 128 129 132 134 137 132 127 124 124 119 114 112 109
97 99 100 101 102 102 103 104 106 107 109 110 112 113 115 117 118 119 120 122 125 126 125 125 126 128 128 130 134 135 135 138 141 136 131 131 128 121 115 112 111 110 107
103 102 103 105 107 109 111 111 112 113 114 115 117 118 121 124 125 125 125 126 127 129 130 132 135 136 137 136 137 139 138 136 132 125 121 118 114 112 111 109 106 103 100
105 105 107 109 113 115 116 118 119 121 123 123 124 124 125 126 128 128 129 130 132 136 137 137 137 136 135 133 128 127 123 120 119 116 113 112 110 107 102 100 98 96 93
110 112 113 114 115 115 117 119 120 121 123 125 126 127 127 129 130 131 131 130 127 125 124 123 122 121 120 118 117 116 115 113 111 108 106 103 100 99 97 95 93 90 86
110 110 110 111 113 115 117 119 119 118 118 118 118 119 120 120 120 119 120 118 116 115 114 113 112 111 111 110 109 107 105 102 101 99 98 97 96 93 90 87 84 82 80
104 105 106 106 106 107 108 109 109 110 110 110 111 112 112 111 110 109 109 109 107 107 106 105 104 103 101 100 99 98 98 97 96 93 91 88 86 84 81 80 80 80 80
96 98 99 100 101 102 103 103 104 104 104 104 104 104 104 104 103 102 101 100 99 99 99 98 98 97 96 95 94 92 90 88 86 84 83 82 81 81 81 80 79 78 77
91 92 92 93 94 95 95 96 96 97 98 98 98 97 97 97 97 96 96 96 95 94 94 93 92 90 88 86 84 83 82 82 81 80 80 79 79 78 77 76 75 74 73
Wind_Direction
207 209 218 225 219 214 212 212 211 210 211 219 225 228 227 227 227 230 234 239 244 247 250 254 256 259 263 265 264 265 265 268 270 275 279 278 278 275 276 277 275 274 274
215 212 218 227 228 221 214 221 213 214 221 221 216 220 229 230 234 237 242 244 245 250 254 256 258 261 262 264 267 267 271 274 278 277 277 279 279 280 279 278 276 275 276
222 218 219 226 229 229 227 223 223 211 209 221 227 230 235 231 232 235 238 246 249 251 252 253 258 262 264 267 268 269 272 272 273 273 275 275 276 276 275 276 276 276 274
224 224 224 227 230 229 231 231 228 223 220 219 220 222 226 231 234 238 242 247 250 252 254 255 257 259 260 261 261 262 264 266 268 270 274 278 280 281 281 280 280 276 277
225 227 229 231 235 233 232 233 235 235 231 230 230 233 237 240 241 245 248 249 253 255 258 261 263 263 263 262 263 266 269 272 275 276 276 275 275 276 278 279 276 274 276
226 228 231 237 238 239 239 238 237 234 235 235 235 240 242 244 250 252 252 254 257 259 259 262 264 264 265 267 269 271 274 275 275 274 274 274 276 277 278 280 280 279 280
230 231 234 237 241 241 244 244 242 241 240 240 242 245 249 252 254 256 258 259 262 261 260 262 267 268 268 268 269 273 279 280 277 275 276 277 277 280 281 282 284 284 283
234 234 235 237 240 242 245 245 244 246 246 248 249 249 253 256 258 260 261 259 259 260 261 264 266 267 267 268 271 277 281 284 282 278 277 276 275 275 276 277 277 278 279
235 238 239 240 241 243 247 248 247 247 250 251 253 255 258 259 261 262 263 262 262 264 264 266 267 267 267 268 273 277 279 281 284 283 280 280 280 279 278 277 276 276 276
234 238 242 243 245 247 250 252 254 255 255 253 253 256 257 260 262 263 263 263 263 265 268 270 270 272 274 277 279 281 281 283 282 283 284 284 283 284 284 284 283 284 285
234 237 241 243 246 249 251 254 256 259 262 264 263 262 262 261 260 260 262 264 266 268 270 272 276 279 279 279 280 281 281 283 282 281 282 282 283 284 284 282 280 280 280
239 238 238 242 245 248 252 254 255 252 253 256 260 263 264 266 265 263 264 268 270 273 275 275 276 277 280 279 279 277 277 279 281 281 281 280 281 281 283 282 280 278 279
236 233 236 241 246 243 247 249 254 254 257 256 257 260 262 263 262 265 268 272 274 274 274 274 276 276 276 276 276 275 276 278 280 280 280 281 281 281 279 283 281 280 281
239 239 241 243 245 246 246 248 250 250 252 255 257 259 261 261 263 265 268 271 273 274 274 275 274 274 274 275 276 277 278 280 280 278 278 280 282 283 282 283 282 280 280
240 242 244 245 246 247 247 247 248 251 254 253 254 257 262 265 266 267 269 272 272 273 274 275 275 276 276 277 279 280 280 279 279 280 284 284 286 287 286 285 284 285 284
240 242 244 245 247 249 251 252 252 253 255 257 259 261 263 264 266 268 270 270 272 273 275 274 276 277 278 281 282 283 283 284 287 288 290 291 290 289 287 287 287 286 284
241 242 245 246 248 249 250 252 254 256 258 260 261 263 265 266 266 267 269 271 272 273 276 278 278 278 278 283 284 289 289 289 289 288 290 290 288 289 288 287 288 287 286
242 244 245 247 250 252 252 253 254 256 257 259 260 262 264 265 266 267 269 271 272 274 275 275 278 280 281 286 288 288 288 287 289 288 288 290 290 290 290 289 289 289 289
244 246 247 249 251 252 253 255 257 259 260 261 262 263 265 266 267 268 270 271 273 275 277 279 282 285 286 285 285 285 286 286 286 288 288 289 290 290 290 290 290 289 288
245 246 249 250 251 252 254 256 257 259 260 262 264 265 266 267 269 271 273 275 277 279 281 283 283 282 283 283 283 284 286 286 286 287 288 289 289 290 289 288 287 287 287
252 252 253 253 253 254 255 257 258 260 262 264 266 268 270 272 274 275 276 278 279 281 281 281 281 280 280 281 281 283 285 286 287 287 287 287 287 287 288 286 287 287 285
256 256 257 258 259 260 262 263 264 266 268 269 270 272 273 275 276 277 278 278 278 278 279 279 279 279 281 283 283 283 284 284 285 285 285 286 286 286 286 286 287 288 288
260 261 262 262 262 263 264 265 267 269 271 272 273 273 273 274 275 276 276 276 277 278 279 280 281 281 281 282 282 283 283 284 285 286 285 286 287 287 288 288 289 289 289
263 263 265 267 268 270 270 271 272 272 272 272 272 273 274 274 275 276 277 277 278 279 279 279 280 281 282 282 283 284 284 283 285 286 287 287 287 289 289 288 288 289 288
265 266 267 268 268 269 269 270 271 272 273 274 274 275 276 276 277 277 277 278 279 280 280 280 281 282 282 283 284 284 284 285 286 287 287 288 288 288 288 288 288 288 288
267 268 269 269 270 270 271 272 273 274 274 275 275 276 276 276 277 278 279 280 280 281 281 282 283 283 283 283 284 284 285 286 286 287 287 287 288 288 288 288 288 288 288
Height
10530 10536 10541 10545 10546 10547 10549 10553 10555 10559 10564 10569 10574 10579 10583 10586 10589 10592 10596 10598 10600 10600 10601 10601 10600 10601 10601 10601 10600 10600 10599 10598 10600 10596 10595 10593 10595 10594 10592 10591 10589 10587 10584
10525 10531 10536 10540 10542 10544 10546 10549 10551 10553 10557 10562 10566 10571 10575 10578 10582 10585 10585 10587 10588 10588 10589 10589 10589 10590 10590 10590 10591 10590 10589 10589 10589 10584 10580 10580 10580 10579 10579 10578 10576 10575 10572
10517 10524 10529 10533 10537 10541 10544 10546 10548 10549 10552 10555 10559 10563 10565 10568 10570 10571 10573 10575 10577 10577 10577 10578 10579 10579 10579 10580 10579 10577 10578 10577 10577 10575 10566 10568 10567 10566 10566 10565 10562 10560 10559
10508 10516 10522 10526 10530 10534 10538 10541 10544 10546 10547 10550 10553 10555 10557 10558 10560 10563 10566 10567 10567 10568 10568 10568 10569 10569 10568 10568 10567 10566 10566 10565 10565 10565 10560 10556 10556 10551 10554 10551 10551 10548 10546
10500 10508 10513 10517 10522 10527 10531 10534 10537 10540 10542 10545 10547 10548 10549 10551 10553 10555 10556 10557 10558 10559 10560 10560 10559 10558 10558 10557 10557 10554 10554 10553 10553 10553 10553 10549 10543 10540 10539 10537 10537 10532 10530
10492 10500 10506 10509 10513 10517 10522 10525 10527 10530 10534 10537 10539 10540 10541 10543 10545 10546 10547 10549 10551 10551 10549 10547 10547 10548 10546 10545 10544 10541 10541 10543 10542 10540 10538 10536 10533 10529 10523 10520 10517 10514 10513
10485 10492 10497 10501 10504 10507 10510 10513 10516 10520 10523 10527 10530 10530 10530 10531 10533 10534 10536 10539 10539 10538 10537 10536 10536 10536 10534 10532 10530 10527 10529 10528 10527 10523 10522 10520 10518 10515 10509 10504 10497 10495 10492
10477 10482 10486 10490 10493 10496 10498 10500 10504 10508 10510 10513 10516 10518 10518 10517 10518 10519 10522 10523 10523 10522 10522 10521 10521 10520 10519 10516 10512 10512 10512 10510 10507 10505 10503 10503 10500 10496 10490 10486 10482 10477 10471
10465 10470 10474 10477 10480 10483 10486 10489 10492 10495 10496 10499 10501 10504 10505 10504 10503 10505 10506 10507 10508 10508 10508 10507 10506 10504 10502 10500 10497 10496 10494 10492 10489 10485 10482 10480 10478 10476 10471 10465 10461 10457 10452
10453 10457 10460 10464 10468 10470 10473 10475 10477 10479 10481 10484 10486 10488 10489 10490 10489 10489 10489 10489 10490 10491 10491 10491 10489 10487 10485 10481 10477 10474 10472 10469 10467 10463 10458 10455 10452 10450 10447 10442 10436 10429 10425
10440 10445 10448 10452 10455 10457 10459 10461 10464 10466 10466 10466 10467 10469 10471 10473 10472 10471 10471 10472 10472 10472 10472 10471 10469 10466 10463 10460 10456 10453 10449 10446 10443 10440 10437 10434 10431 10427 10424 10419 10413 10407 10400
10426 10431 10435 10439 10441 10444 10447 10447 10448 10449 10450 10450 10451 10452 10452 10452 10452 10452 10451 10452 10453 10453 10453 10451 10448 10445 10442 10438 10435 10431 10427 10423 10420 10417 10413 10409 10404 10400 10395 10389 10384 10377 10371
10410 10415 10420 10424 10427 10428 10431 10432 10434 10433 10431 10432 10431 10433 10433 10433 10433 10431 10432 10432 10431 10431 10430 10428 10425 10423 10420 10417 10413 10409 10405 10401 10396 10392 10386 10381 10376 10371 10364 10359 10352 10346 10340
10394 10398 10402 10405 10408 10411 10413 10413 10412 10412 10411 10412 10412 10413 10412 10411 10412 10411 10409 10407 10406 10404 10403 10402 10400 10399 10396 10393 10390 10385 10380 10375 10369 10363 10357 10351 10344 10337 10330 10324 10318 10310 10305
10377 10380 10382 10385 10387 10389 10392 10393 10394 10394 10393 10392 10392 10392 10391 10389 10388 10386 10385 10382 10380 10378 10376 10374 10373 10371 10368 10365 10362 10357 10351 10345 10339 10332 10325 10318 10310 10303 10294 10287 10279 10271 10264
10357 10359 10361 10363 10365 10367 10369 10370 10371 10371 10371 10372 10371 10370 10368 10365 10363 10362 10360 10357 10355 10353 10350 10348 10345 10342 10339 10335 10330 10325 10319 10311 10304 10297 10290 10283 10275 10268 10260 10252 10242 10233 10224
10335 10338 10339 10341 10344 10346 10347 10348 10348 10348 10347 10347 10346 10344 10342 10341 10338 10335 10332 10330 10329 10326 10322 10320 10317 10313 10309 10304 10297 10290 10282 10275 10269 10262 10254 10247 10237 10229 10222 10214 10202 10195 10187
10316 10318 10321 10322 10323 10325 10325 10324 10324 10324 10323 10322 10320 10318 10316 10313 10311 10308 10305 10303 10301 10298 10293 10290 10287 10282 10277 10270 10261 10255 10249 10241 10234 10225 10216 10208 10199 10191 10182 10175 10166 10157 10148
10295 10296 10297 10298 10298 10299 10299 10299 10299 10298 10296 10295 10294 10291 10288 10286 10283 10280 10278 10275 10271 10267 10263 10260 10255 10248 10242 10235 10229 10221 10212 10204 10195 10187 10178 10170 10163 10154 10146 10138 10131 10122 10115
10271 10272 10273 10274 10274 10274 10273 10273 10272 10270 10268 10267 10264 10262 10258 10255 10253 10251 10248 10244 10240 10234 10229 10224 10220 10214 10208 10199 10191 10183 10175 10167 10158 10149 10142 10135 10128 10120 10113 10106 10098 10091 10082
10246 10247 10247 10247 10246 10245 10245 10245 10244 10242 10240 10238 10236 10232 10229 10227 10224 10219 10215 10209 10205 10201 10194 10189 10184 10175 10167 10158 10152 10145 10138 10132 10125 10117 10110 10102 10096 10088 10081 10074 10067 10060 10052
10218 10218 10218 10218 10217 10218 10216 10215 10214 10211 10209 10206 10204 10202 10198 10195 10190 10186 10183 10177 10169 10163 10156 10150 10144 10137 10130 10125 10119 10113 10107 10100 10092 10085 10078 10071 10064 10057 10050 10043 10037 10031 10024
10187 10187 10187 10186 10185 10185 10184 10183 10182 10181 10179 10175 10172 10168 10164 10159 10155 10150 10144 10137 10131 10126 10121 10116 10110 10105 10098 10092 10086 10080 10073 10067 10060 10054 10046 10040 10033 10027 10021 10015 10009 10003 9998
10159 10157 10156 10155 10154 10153 10152 10150 10148 10146 10142 10139 10135 10131 10126 10121 10117 10113 10110 10104 10099 10094 10088 10082 10077 10070 10065 10060 10054 10048 10041 10035 10030 10024 10017 10011 10006 10000 9994 9989 9983 9977 9972
10128 10127 10126 10124 10122 10120 10118 10116 10113 10110 10108 10104 10101 10097 10093 10090 10086 10081 10076 10071 10065 10061 10055 10049 10044 10038 10033 10029 10023 10019 10013 10007 10001 9995 9990 9984 9979 9973 9968 9963 9958 9952 9947
10100 10099 10097 10095 10093 10090 10088 10085 10083 10079 10076 10072 10069 10065 10060 10056 10052 10048 10044 10039 10034 10029 10024 10020 10015 10010 10005 10000 9995 9990 9985 9980 9974 9969 9963 9958 9953 9949 9944 9939 9934 9929 9924